{"data":{"norad_id":64760,"intl_designator":"2025-147F","name":"STARLINK-34235","alt_names":[],"object_type":"PAYLOAD","status":"ACTIVE","operator":null,"country":"US","launch_date":"2025-07-08","launch_site_code":"AFETR","launch_vehicle":null,"mission":null,"orbit_class":"UNKNOWN","rcs_meters":null,"size_class":null,"mass_kg":null,"dimensions":null,"purposes":["comms"],"wikipedia_slug":null,"has_3d_model":false,"image_url":null,"decayed_at":null,"tle_current":{"epoch":"2026-05-24T18:25:39.990144Z","epoch_age_seconds":102024,"freshness":"FRESH","line1":"1 64760U 25147F   26144.76782396  .00011581  00000+0  35337-3 0  9996","line2":"2 64760  53.1589 249.0955 0001138  79.1339 280.9791 15.34397993 50447","mean_motion":15.34397993,"eccentricity":0.0001138,"inclination_deg":53.1589,"raan_deg":249.0955,"arg_perigee_deg":79.1339,"mean_anomaly_deg":280.9791,"bstar":0.00035337,"rev_number":5044,"period_min":93.847880834656,"perigee_km":461.93071714238,"apogee_km":463.48769373874,"semimajor_km":6840.8462054406,"source":"CELESTRAK","updated_at":"2026-05-25T13:38:20.553578Z"}}}